SP2WM Weather Reports


time (UTC)temp
C
wind
direction
speed
KPH
gust
KPH
rain 1hr
cm
rain 24hr
cm
rain mn
cm
humidity
%
barometer
mb
20260905155039 17 139 6.4 20.9 0.00 0.00 0.00 76 1010.6
20260905154036 18 139 11.3 27.4 0.00 0.00 0.00 69 1010.2
20260905153034 18 138 9.7 27.4 0.00 0.00 0.00 68 1010.1
20260905152033 18 139 12.9 24.1 0.00 0.00 0.00 67 1010.1
20260905151033 18 137 9.7 22.5 0.00 0.00 0.00 69 1010.2
20260905150029 18 138 9.7 35.4 0.00 0.00 0.00 70 1010.1
20260905145029 18 138 9.7 29.0 0.00 0.00 0.00 68 1010.3
20260905144025 19 139 14.5 33.8 0.00 0.00 0.00 66 1009.9
20260905143021 18 140 12.9 29.0 0.00 0.00 0.00 68 1009.8
20260905142023 18 141 8.0 29.0 0.00 0.00 0.00 67 1009.8
20260905141039 19 141 12.9 29.0 0.00 0.00 0.00 67 1009.9
20260905140038 19 139 11.3 29.0 0.00 0.00 0.00 68 1009.9
20260905135038 19 139 9.7 30.6 0.00 0.00 0.00 67 1009.8
20260905134037 18 139 8.0 24.1 0.00 0.00 0.00 70 1009.6
20260905133034 18 139 9.7 24.1 0.00 0.00 0.00 71 1009.7
20260905132032 17 139 9.7 25.7 0.00 0.00 0.00 73 1009.8
20260905131028 17 139 6.4 24.1 0.00 0.00 0.00 76 1009.8
20260905130025 19 140 11.3 33.8 0.00 0.00 0.00 65 1009.9
20260905125028 20 139 14.5 29.0 0.00 0.00 0.00 61 1009.7
20260905124026 20 139 9.7 24.1 0.00 0.00 0.00 65 1009.7
20260905123022 20 139 6.4 16.1 0.00 0.00 0.00 67 1009.7
20260905122022 19 139 6.4 22.5 0.00 0.00 0.00 69 1009.7
20260905121023 18 139 8.0 27.4 0.00 0.00 0.00 71 1009.8
20260905120023 18 140 6.4 24.1 0.00 0.00 0.00 69 1010.0
20260905115025 19 139 11.3 29.0 0.00 0.00 0.00 68 1009.8
20260905114023 18 141 11.3 29.0 0.00 0.00 0.00 69 1010.0
20260905113024 18 141 14.5 30.6 0.00 0.00 0.00 67 1009.9
20260905112022 18 141 11.3 19.3 0.00 0.00 0.00 69 1010.0
20260905111039 17 141 6.4 30.6 0.00 0.00 0.00 71 1009.9
20260905110037 18 140 8.0 24.1 0.00 0.00 0.00 68 1010.0
20260905105037 18 139 9.7 35.4 0.00 0.00 0.00 69 1009.8
20260905104037 19 140 9.7 25.7 0.00 0.00 0.00 65 1009.7
20260905103034 19 141 8.0 33.8 0.00 0.00 0.00 66 1009.6
20260905102031 18 143 12.9 30.6 0.00 0.00 0.00 66 1009.7
20260905101024 18 142 12.9 43.5 0.00 0.00 0.00 68 1009.7
20260905100027 18 141 9.7 25.7 0.00 0.00 0.00 70 1009.5
20260905095027 17 142 17.7 38.6 0.00 0.00 0.00 70 1009.7
20260905094043 18 141 11.3 32.2 0.00 0.00 0.00 69 1009.4
20260905093027 18 143 16.1 32.2 0.00 0.00 0.00 69 1009.4
20260905092028 18 141 12.9 37.0 0.00 0.00 0.00 69 1009.2
20260905091030 18 142 9.7 29.0 0.00 0.00 0.00 70 1009.1
20260905090028 17 141 9.7 29.0 0.00 0.00 0.00 70 1009.0
20260905085027 17 140 9.7 24.1 0.00 0.00 0.00 72 1009.0
20260905084024 17 141 11.3 33.8 0.00 0.00 0.00 71 1008.9
20260905083026 17 142 11.3 30.6 0.00 0.00 0.00 72 1008.7
20260905082024 17 142 19.3 37.0 0.00 0.00 0.00 70 1008.7
20260905081021 17 141 9.7 37.0 0.00 0.00 0.00 74 1008.7
20260905080038 17 140 11.3 25.7 0.00 0.00 0.00 73 1008.5
20260905075037 17 140 9.7 30.6 0.00 0.00 0.00 76 1008.4
20260905074038 17 140 12.9 24.1 0.00 0.00 0.00 74 1008.2
20260905073034 17 143 16.1 30.6 0.00 0.00 0.00 75 1008.1
20260905072035 16 144 17.7 41.8 0.00 0.00 0.00 76 1008.1
20260905071033 16 142 9.7 27.4 0.00 0.00 0.00 79 1007.8
20260905070035 16 140 11.3 35.4 0.00 0.00 0.00 80 1007.8
20260905065033 16 142 12.9 25.7 0.00 0.00 0.00 82 1007.5
20260905064032 16 142 11.3 25.7 0.00 0.00 0.00 84 1007.6
20260905063026 15 141 8.0 27.4 0.00 0.00 0.00 85 1007.4
20260905062026 15 141 9.7 20.9 0.00 0.00 0.00 86 1007.3
20260905061028 15 142 9.7 24.1 0.00 0.00 0.00 86 1007.3
20260905060030 15 141 9.7 20.9 0.00 0.00 0.00 85 1007.2
20260905055026 15 142 9.7 24.1 0.00 0.00 0.00 86 1007.0
20260905054024 15 141 8.0 20.9 0.00 0.00 0.00 85 1007.1
20260905053027 15 141 6.4 25.7 0.00 0.00 0.00 86 1006.9
20260905052025 14 142 8.0 19.3 0.00 0.00 0.00 86 1006.8
20260905051022 14 142 8.0 19.3 0.00 0.00 0.00 86 1006.7
20260905050040 14 141 8.0 17.7 0.00 0.00 0.00 86 1006.7
20260905045022 14 141 4.8 14.5 0.00 0.00 0.00 86 1006.5
20260905044020 14 141 8.0 14.5 0.00 0.00 0.00 86 1006.4
20260905043038 14 141 6.4 19.3 0.00 0.00 0.00 85 1006.3
20260905041025 14 141 11.3 19.3 0.00 0.00 0.00 85 1006.2
20260905040027 14 141 9.7 30.6 0.00 0.00 0.00 85 1006.0
20260905035026 14 142 11.3 24.1 0.00 0.00 0.00 85 1005.9
20260905034024 14 141 12.9 20.9 0.00 0.00 0.00 85 1005.8
20260905033020 15 142 11.3 32.2 0.00 0.00 0.00 85 1005.6
20260905032025 15 142 9.7 32.2 0.00 0.00 0.00 85 1005.6
20260905031020 15 141 11.3 22.5 0.00 0.00 0.00 85 1005.4
20260905030020 15 142 9.7 24.1 0.00 0.00 0.00 85 1005.3
20260905025039 15 142 8.0 22.5 0.00 0.00 0.00 84 1005.3
20260905024036 15 142 8.0 19.3 0.00 0.00 0.00 83 1005.1
20260905023039 16 141 9.7 32.2 0.00 0.00 0.00 83 1005.0
20260905022039 16 143 8.0 19.3 0.00 0.00 0.00 85 1004.8
20260905021034 16 143 12.9 29.0 0.00 0.00 0.00 85 1004.7
20260905020031 16 143 12.9 27.4 0.00 0.00 0.00 85 1004.4
20260905015110 16 142 11.3 22.5 0.00 0.00 0.00 85 1004.2
20260905014028 16 142 8.0 29.0 0.00 0.00 0.00 86 1004.3
20260905013027 16 143 8.0 24.1 0.00 0.00 0.00 86 1003.9
20260905012025 16 142 8.0 17.7 0.00 0.00 0.00 87 1003.8
20260905011024 16 143 9.7 22.5 0.00 0.00 0.00 87 1003.7
20260905010044 17 142 8.0 20.9 0.00 0.00 0.00 88 1003.6
20260905005037 17 142 9.7 25.7 0.00 0.00 0.00 87 1003.5
20260905004035 17 142 8.0 20.9 0.00 0.00 0.00 87 1003.4
20260905003031 17 142 9.7 24.1 0.00 0.00 0.00 87 1003.5
20260905002032 17 142 8.0 20.9 0.00 0.00 0.00 87 1003.3
20260905001033 17 141 6.4 20.9 0.00 0.00 0.00 87 1002.8
20260905000031 17 141 9.7 19.3 0.00 0.00 0.00 86 1002.6
20260904235030 17 142 11.3 24.1 0.00 0.00 0.00 86 1002.6
20260904234029 17 145 14.5 30.6 0.00 0.00 0.00 86 1002.4
20260904233031 17 143 11.3 40.2 0.00 0.00 0.00 86 1002.4
20260904232029 17 143 11.3 35.4 0.00 0.00 0.00 86 1002.3
20260904231028 17 143 9.7 27.4 0.00 0.00 0.00 87 1002.1
20260904230026 18 143 9.7 17.7 0.00 0.00 0.00 87 1001.9
20260904225029 18 144 11.3 30.6 0.00 0.00 0.00 89 1001.8
20260904224026 17 142 9.7 20.9 0.00 0.00 0.00 91 1001.9
20260904223024 17 142 6.4 12.9 0.00 0.00 0.00 92 1001.7
20260904222022 17 142 6.4 14.5 0.00 0.00 0.00 92 1001.8
20260904221040 17 142 3.2 6.4 0.00 0.00 0.00 91 1001.7
20260904220022 17 142 3.2 8.0 0.00 0.00 0.00 90 1001.6
20260904215022 17 142 1.6 14.5 0.00 0.00 0.00 89 1001.5
20260904214020 17 142 4.8 12.9 0.00 0.00 0.00 89 1001.4
20260904212040 17 142 4.8 14.5 0.00 0.00 0.00 89 1001.7
20260904211036 17 142 4.8 16.1 0.00 0.00 0.00 89 1001.6
20260904210032 17 142 3.2 16.1 0.00 0.00 0.00 89 1001.7
20260904205032 17 142 4.8 14.5 0.00 0.00 0.00 89 1001.7
20260904204031 17 142 6.4 17.7 0.00 0.00 0.00 90 1001.6
20260904202040 17 143 6.4 14.5 0.00 0.00 0.00 89 1001.6
20260904201035 18 143 6.4 19.3 0.00 0.00 0.00 89 1001.6
20260904200032 18 143 6.4 24.1 0.00 0.00 0.00 89 1001.7